Home   Weather   Quincy   Past weeks
Flag for USA

Past Weather in Quincy, Illinois, USA — Yesterday and Last 2 Weeks

Now
56 °F

Sunny.


Feels Like: 55 °F
Forecast: 68 / 45 °F
Wind: 6 mph from Southeast

Location: Quincy Municipal / Baldwin

Current Time: Oct 17, 2019 at 7:03:58 pm

Latest Report: Oct 17, 2019 at 5:54 pm


Visibility: 10 mi

Pressure: 29.98 "Hg

Humidity: 55%

Dew Point: 40 °F

Location of QuincyLocation

Past Weather in Quincy — Graph

°F

Quincy Temperature Yesterday

Maximum temperature yesterday: 53 °F (at 12:54 pm)
Minimum temperature yesterday: 41 °F (at 4:54 am)
Average temperature yesterday: 46 °F

High & Low Weather Summary for the Past Weeks

 TemperatureHumidityPressure
High81 °F (Oct 2, 5:54 pm)97% (Oct 3, 3:30 am)30.39 "Hg (Oct 3, 3:30 am)
Low31 °F (Oct 12, 3:54 am)26% (Oct 12, 3:54 pm)29.80 "Hg (Oct 15, 2:54 pm)
Average55 °F70%30.05 "Hg
* Reported Oct 2 5:54 pm — Oct 17 5:54 pm, Quincy. Weather by CustomWeather, © 2019

Note: Actual official high and low records may vary slightly from our data, if they occured in-between our weather recording intervals... More about our weather records

Advertising

Quincy Weather History for the Previous 24 Hours

Scroll right to see more
 ConditionsComfort  
Time TempWeatherWind HumidityBarometerVisibility
5:54 pm
Thu, Oct 17
56 °FSunny.6 mph55%29.98 "Hg10 mi
4:54 pm59 °FSunny.5 mph48%29.98 "Hg10 mi
3:54 pm59 °FSunny.3 mph44%29.99 "Hg10 mi
2:54 pm57 °FSunny.5 mph49%30.01 "Hg10 mi
1:54 pm57 °FSunny.5 mph53%30.03 "Hg9 mi
12:54 pm54 °FSunny.6 mph57%30.07 "Hg10 mi
11:54 am53 °FSunny.8 mph61%30.09 "Hg10 mi
10:54 am50 °FSunny.5 mph66%30.10 "Hg10 mi
8:54 am41 °FScattered clouds.3 mph96%30.11 "Hg7 mi
8:42 am40 °FFog.No wind97%30.10 "Hg2 mi
8:14 am37 °FFog.5 mph96%30.09 "Hg1 mi
8:08 am37 °FFog.3 mph96%30.09 "Hg3 mi
7:34 am37 °FFog.3 mph96%30.08 "Hg2 mi
7:06 am37 °FFog.No wind93%30.08 "Hg1 mi
6:12 am36 °FFog.3 mph97%30.06 "Hg1 mi
6:04 am36 °FFog.5 mph97%30.06 "Hg0 mi
5:54 am36 °FFog.5 mph97%30.07 "Hg0 mi
5:19 am36 °FFog.3 mph97%30.07 "Hg1 mi
5:11 am36 °FFog.3 mph92%30.07 "Hg6 mi
4:54 am37 °FClear.No wind93%30.08 "Hg10 mi
3:54 am37 °FClear.3 mph89%30.08 "Hg10 mi
2:54 am39 °FClear.No wind89%30.10 "Hg10 mi
1:54 am40 °FClear.No wind86%30.10 "Hg7 mi
12:54 am41 °FClear.No wind86%30.09 "Hg10 mi
11:54 pm
Wed, Oct 16
41 °FClear.No wind89%30.10 "Hg10 mi
10:54 pm41 °FClear.3 mph86%30.10 "Hg10 mi
9:54 pm45 °FOvercast.3 mph76%30.10 "Hg10 mi
8:54 pm47 °FOvercast.3 mph71%30.10 "Hg10 mi
7:54 pm48 °FOvercast.5 mph71%30.11 "Hg10 mi
Weather by CustomWeather, © 2019

See weather overview